Location: Casa Rossa
(45.2389°N, 12.2056°E)
Time: 22:56:52
(UTC+00:00)

Cosmos 1833 Rocket - Pass Details

Date: 14 July 2020
Orbit: 832 x 840 km, 71.0° (Epoch: 14 August)

Event Time Altitude Azimuth Distance (km) Brightness Sun altitude
Exits shadow 00:44:46 30° 161° (SSE) 1,441 3.5 -20.2°
Maximum altitude 00:47:03 47° 108° (ESE) 1,097 3.3 -20.1°
Drops below altitude 10° 00:52:23 10° 36° (NE) 2,452 6.3 -19.7°
Sets 00:54:55 0° 31° (NNE) 3,391 7.4 -19.5°
